When you browse on this site, cookies collect data to enhance your experience and personalize the content and advertising you see.
Visit our Privacy Policy to learn more. By continuing to use the site, you agree to this use of cookies and data.
  • In Lithuania
  • List of Countries
  • For 7 days
  • Water Temperature
  • Weather Map
  • Weather Widgets
  • user-avatar
    Login

    Hourly Weather Río Gallegos

    Today, 17 October, Thursday

    Time Temperature Precipitation Wind Pressure Humidity
    00:00 +9°C° 0 mm 5 mps 754 mmHg 68%
    01:00 +10°C° 0 mm 4 mps 754 mmHg 66%
    02:00 +8°C° 0 mm 4 mps 754 mmHg 63%
    03:00 +8°C° 0 mm 4 mps 754 mmHg 59%
    04:00 +8°C° 0 mm 4 mps 754 mmHg 56%
    05:00 +8°C° 0 mm 4 mps 754 mmHg 56%
    06:00 +10°C° 0 mm 4 mps 754 mmHg 56%
    07:00 +10°C° 0 mm 4 mps 755 mmHg 58%
    08:00 +10°C° 0 mm 5 mps 755 mmHg 57%
    09:00 +11°C° 0 mm 6 mps 755 mmHg 56%
    10:00 +12°C° 0 mm 7 mps 755 mmHg 55%
    11:00 +12°C° 0.1 mm 7 mps 755 mmHg 53%
    12:00 +12°C° 0.1 mm 7 mps 755 mmHg 50%
    13:00 +12°C° 0.1 mm 7 mps 754 mmHg 48%
    14:00 +13°C° 0.1 mm 6 mps 754 mmHg 48%
    15:00 +12°C° 0.1 mm 5 mps 754 mmHg 48%
    16:00 +12°C° 0.1 mm 4 mps 754 mmHg 49%
    17:00 +11°C° 0.2 mm 4 mps 755 mmHg 55%
    18:00 +10°C° 0.2 mm 3 mps 755 mmHg 61%
    19:00 +9°C° 0.2 mm 3 mps 755 mmHg 67%
    20:00 +7°C° 0.1 mm 4 mps 755 mmHg 73%
    21:00 +7°C° 0.1 mm 6 mps 755 mmHg 80%
    22:00 +5°C° 0.1 mm 7 mps 755 mmHg 86%
    23:00 +5°C° 0.1 mm 9 mps 755 mmHg 82%

    Tomorrow, 18 October, Friday

    Time Temperature Precipitation Wind Pressure Humidity
    00:00 +3°C° 0.1 mm 11 mps 755 mmHg 78%
    01:00 +3°C° 0.1 mm 13 mps 756 mmHg 74%
    02:00 +2°C° 0 mm 12 mps 757 mmHg 73%
    03:00 +2°C° 0 mm 10 mps 757 mmHg 71%
    04:00 +1°C° 0 mm 9 mps 758 mmHg 70%
    05:00 +2°C° 0 mm 9 mps 758 mmHg 65%
    06:00 +4°C° 0 mm 8 mps 759 mmHg 60%
    07:00 +5°C° 0 mm 8 mps 759 mmHg 54%
    08:00 +5°C° 0 mm 7 mps 759 mmHg 56%
    09:00 +5°C° 0 mm 6 mps 759 mmHg 58%
    10:00 +7°C° 0 mm 4 mps 759 mmHg 59%
    11:00 +8°C° 0.1 mm 6 mps 758 mmHg 58%
    12:00 +9°C° 0.1 mm 7 mps 757 mmHg 57%
    13:00 +10°C° 0.1 mm 8 mps 757 mmHg 55%
    14:00 +9°C° 0 mm 7 mps 756 mmHg 58%
    15:00 +9°C° 0 mm 7 mps 756 mmHg 60%
    16:00 +9°C° 0 mm 6 mps 755 mmHg 62%
    17:00 +9°C° 0 mm 5 mps 755 mmHg 63%
    18:00 +9°C° 0 mm 5 mps 755 mmHg 64%
    19:00 +10°C° 0 mm 4 mps 755 mmHg 65%
    20:00 +9°C° 0 mm 5 mps 754 mmHg 64%
    21:00 +10°C° 0 mm 5 mps 754 mmHg 62%
    22:00 +10°C° 0 mm 6 mps 754 mmHg 61%
    23:00 +10°C° 0 mm 7 mps 754 mmHg 59%

    Day after tomorrow, 19 October, Saturday

    Time Temperature Precipitation Wind Pressure Humidity
    00:00 +10°C° 0 mm 8 mps 753 mmHg 58%
    01:00 +10°C° 0 mm 8 mps 753 mmHg 57%
    02:00 +10°C° 0 mm 8 mps 752 mmHg 57%
    03:00 +10°C° 0 mm 8 mps 752 mmHg 57%
    04:00 +10°C° 0 mm 8 mps 752 mmHg 57%
    05:00 +10°C° 0 mm 8 mps 752 mmHg 54%
    06:00 +11°C° 0 mm 9 mps 752 mmHg 52%
    07:00 +12°C° 0 mm 9 mps 752 mmHg 49%
    08:00 +15°C° 0 mm 9 mps 751 mmHg 44%
    09:00 +16°C° 0 mm 9 mps 751 mmHg 39%
    10:00 +18°C° 0 mm 10 mps 751 mmHg 34%
    11:00 +18°C° 0 mm 9 mps 750 mmHg 32%
    12:00 +18°C° 0 mm 9 mps 750 mmHg 31%
    13:00 +19°C° 0 mm 9 mps 749 mmHg 29%
    14:00 +18°C° 0 mm 8 mps 749 mmHg 30%
    15:00 +18°C° 0 mm 8 mps 749 mmHg 30%
    16:00 +18°C° 0 mm 7 mps 749 mmHg 31%
    17:00 +16°C° 0 mm 6 mps 749 mmHg 35%
    18:00 +15°C° 0 mm 5 mps 749 mmHg 39%
    19:00 +14°C° 0 mm 3 mps 749 mmHg 44%
    20:00 +14°C° 0 mm 3 mps 749 mmHg 45%
    21:00 +13°C° 0 mm 3 mps 748 mmHg 45%
    22:00 +13°C° 0 mm 3 mps 748 mmHg 46%
    23:00 +13°C° 0 mm 2 mps 748 mmHg 49%

    20 October, Sunday

    Time Temperature Precipitation Wind Pressure Humidity
    00:00 +13°C° 0 mm 2 mps 748 mmHg 51%
    01:00 +12°C° 0 mm 1 mps 748 mmHg 54%
    02:00 +12°C° 0 mm 1 mps 748 mmHg 54%
    03:00 +12°C° 0 mm 2 mps 748 mmHg 53%
    04:00 +10°C° 0 mm 2 mps 748 mmHg 52%
    05:00 +12°C° 0 mm 2 mps 748 mmHg 51%
    06:00 +13°C° 0 mm 2 mps 749 mmHg 50%
    07:00 +13°C° 0 mm 2 mps 749 mmHg 49%
    08:00 +13°C° 0 mm 3 mps 749 mmHg 51%
    09:00 +13°C° 0 mm 5 mps 750 mmHg 53%
    10:00 +13°C° 0 mm 6 mps 750 mmHg 55%
    11:00 +13°C° 0 mm 6 mps 750 mmHg 54%
    12:00 +11°C° 0 mm 7 mps 751 mmHg 53%
    13:00 +11°C° 0 mm 7 mps 751 mmHg 52%
    14:00 +11°C° 0 mm 6 mps 751 mmHg 51%
    15:00 +11°C° 0 mm 6 mps 751 mmHg 50%
    16:00 +12°C° 0 mm 5 mps 751 mmHg 48%
    17:00 +10°C° 0.1 mm 6 mps 752 mmHg 49%
    18:00 +9°C° 0.1 mm 6 mps 753 mmHg 50%
    19:00 +8°C° 0.1 mm 6 mps 753 mmHg 50%
    20:00 +8°C° 0 mm 6 mps 754 mmHg 52%
    21:00 +7°C° 0 mm 6 mps 754 mmHg 54%
    22:00 +6°C° 0 mm 5 mps 755 mmHg 56%
    23:00 +6°C° 0 mm 5 mps 755 mmHg 57%

    21 October, Monday

    Time Temperature Precipitation Wind Pressure Humidity
    00:00 +6°C° 0 mm 5 mps 755 mmHg 59%
    01:00 +6°C° 0 mm 5 mps 756 mmHg 60%
    02:00 +5°C° 0 mm 5 mps 756 mmHg 61%
    03:00 +5°C° 0 mm 5 mps 757 mmHg 62%
    04:00 +3°C° 0 mm 5 mps 757 mmHg 63%
    05:00 +4°C° 0 mm 7 mps 757 mmHg 59%
    06:00 +5°C° 0 mm 8 mps 757 mmHg 55%
    07:00 +5°C° 0 mm 10 mps 758 mmHg 51%
    08:00 +6°C° 0 mm 9 mps 758 mmHg 48%
    09:00 +7°C° 0 mm 9 mps 758 mmHg 45%
    10:00 +9°C° 0 mm 8 mps 758 mmHg 41%
    11:00 +10°C° 0 mm 8 mps 758 mmHg 40%
    12:00 +11°C° 0 mm 7 mps 757 mmHg 38%
    13:00 +12°C° 0 mm 7 mps 757 mmHg 36%
    14:00 +12°C° 0 mm 7 mps 757 mmHg 36%
    15:00 +13°C° 0 mm 6 mps 757 mmHg 35%
    16:00 +13°C° 0 mm 6 mps 757 mmHg 35%
    17:00 +12°C° 0 mm 5 mps 757 mmHg 39%
    18:00 +10°C° 0 mm 5 mps 757 mmHg 42%
    19:00 +10°C° 0 mm 4 mps 757 mmHg 46%
    20:00 +9°C° 0 mm 3 mps 757 mmHg 48%
    21:00 +8°C° 0 mm 3 mps 757 mmHg 50%
    22:00 +8°C° 0 mm 3 mps 758 mmHg 53%
    23:00 +7°C° 0 mm 4 mps 757 mmHg 53%

    22 October, Tuesday

    Time Temperature Precipitation Wind Pressure Humidity
    00:00 +7°C° 0 mm 4 mps 757 mmHg 53%
    01:00 +7°C° 0 mm 5 mps 757 mmHg 53%
    02:00 +7°C° 0 mm 5 mps 757 mmHg 54%
    03:00 +7°C° 0 mm 5 mps 757 mmHg 56%
    04:00 +6°C° 0 mm 5 mps 757 mmHg 58%
    05:00 +7°C° 0 mm 5 mps 757 mmHg 56%
    06:00 +8°C° 0 mm 5 mps 756 mmHg 54%
    07:00 +9°C° 0 mm 5 mps 756 mmHg 52%
    08:00 +10°C° 0 mm 5 mps 756 mmHg 49%
    09:00 +12°C° 0 mm 5 mps 756 mmHg 45%
    10:00 +13°C° 0 mm 5 mps 756 mmHg 42%
    11:00 +14°C° 0 mm 6 mps 756 mmHg 39%
    12:00 +15°C° 0 mm 7 mps 756 mmHg 35%
    13:00 +16°C° 0 mm 7 mps 756 mmHg 32%
    14:00 +15°C° 0 mm 8 mps 756 mmHg 38%
    15:00 +13°C° 0 mm 9 mps 756 mmHg 43%
    16:00 +12°C° 0 mm 10 mps 756 mmHg 49%
    17:00 +11°C° 0 mm 9 mps 757 mmHg 52%
    18:00 +10°C° 0 mm 7 mps 758 mmHg 55%
    19:00 +8°C° 0 mm 6 mps 759 mmHg 57%
    20:00 +8°C° 0 mm 5 mps 759 mmHg 58%
    21:00 +7°C° 0 mm 5 mps 760 mmHg 59%
    22:00 +6°C° 0 mm 4 mps 760 mmHg 59%
    23:00 +7°C° 0 mm 3 mps 760 mmHg 60%
    Show more